Location: State Camp
(41.2367°N, 77.7828°W)
Time: 23:11:47
(UTC-04:00)

ADEOS Rocket - Visible Passes

Search period start: 21 October 2014 00:00
Search period end: 31 October 2014 00:00
Orbit: 860 x 1307 km, 98.7° (Epoch: 20 October)

Date Brightness Start Highest point End Pass type
(mag) Time Alt. Az. Time Alt. Az. Time Alt. Az.
21 Oct 4.6 20:10:40 24° NE 20:10:40 24° NE 20:16:06 10° N visible
21 Oct 4.3 21:57:39 45° NNW 21:57:39 45° NNW 22:02:45 10° NNW visible
21 Oct 6.0 23:44:37 12° WNW 23:44:37 12° WNW 23:45:31 10° NW visible
22 Oct 5.2 19:21:19 11° ENE 19:22:35 11° NE 19:24:37 10° NNE visible
22 Oct 4.1 21:08:17 43° NNE 21:08:17 43° NNE 21:13:46 10° N visible
22 Oct 5.3 22:55:15 25° NW 22:55:15 25° NW 22:58:50 10° NNW visible
23 Oct 4.6 20:18:55 26° NE 20:18:55 26° NE 20:24:13 10° N visible
23 Oct 4.5 22:05:54 40° NNW 22:05:54 40° NNW 22:10:37 10° NNW visible
24 Oct 5.1 19:29:34 13° ENE 19:30:15 13° NE 19:33:24 10° NNE visible
24 Oct 4.2 21:16:32 43° NNE 21:16:32 43° NNE 21:21:44 10° N visible
24 Oct 5.5 23:03:31 21° NW 23:03:31 21° NW 23:06:31 10° NW visible
25 Oct 4.5 20:27:11 29° NE 20:27:11 29° NE 20:32:18 10° N visible
25 Oct 4.7 22:14:09 36° NW 22:14:09 36° NW 22:18:28 10° NNW visible
26 Oct 5.0 19:37:50 15° NE 19:37:56 15° NE 19:41:52 10° NNE visible
26 Oct 4.3 21:24:48 42° N 21:24:48 42° N 21:29:41 10° N visible
26 Oct 5.7 23:11:47 18° NW 23:11:47 18° NW 23:14:09 10° NW visible
27 Oct 4.5 20:35:27 31° NE 20:35:27 31° NE 20:40:20 10° N visible
27 Oct 5.0 22:22:26 31° NW 22:22:26 31° NW 22:26:17 10° NNW visible
28 Oct 4.9 19:46:06 17° NE 19:46:06 17° NE 19:50:10 10° NNE visible
28 Oct 4.4 21:33:05 40° N 21:33:05 40° N 21:37:36 10° N visible
28 Oct 5.8 23:20:03 15° NW 23:20:03 15° NW 23:21:43 10° NW visible
29 Oct 4.5 20:43:44 32° NNE 20:43:44 32° NNE 20:48:21 10° N visible
29 Oct 5.2 22:30:42 27° NW 22:30:42 27° NW 22:34:04 10° NNW visible
30 Oct 4.9 19:54:23 19° NE 19:54:23 19° NE 19:58:23 10° NNE visible
30 Oct 4.6 21:41:21 36° N 21:41:21 36° N 21:45:29 10° NNW visible
30 Oct 6.0 23:28:20 12° NW 23:28:20 12° NW 23:29:11 10° NW visible
